Regional Weather Roundup
Issued by NWS Jackson, KY

Home | Current Version | Previous Version | Graphics & Text | Print | Product List | Glossary On
Versions: 1 2 3 4 5 6 7 8 9 10 11 12 13 14 15 16 17 18 19 20 21 22 23 24 25 26 27
000
ASUS43 KJKL 290110
RWRJKL

EAST KENTUCKY HOURLY WEATHER ROUNDUP
NATIONAL WEATHER SERVICE JACKSON KY
900 PM EDT SAT MAY 28 2016

NOTE: "FAIR" INDICATES FEW OR NO CLOUDS BELOW 12,000 FEET WITH
NO SIGNIFICANT WEATHER AND/OR OBSTRUCTIONS TO VISIBILITY.

* THESE REPORTS ARE NOT UNDER NWS QUALITY CONTROL AND MAY NOT
  REPORT WEATHER SUCH AS PRECIPITATION AND FOG.

KYZ079-080-083-085-087-088-110-112-115-119-120-290200
...EASTERN KENTUCKY...

CITY           SKY/WX    TMP DP  RH WIND       PRES   REMARKS
JACKSON        CLEAR     76  62  62 NW3       30.13S
LONDON         PTCLDY    78  62  57 CALM      30.12R
SOMERSET*      PTCLDY    75  61  60 CALM      30.12S
MONTICELLO*    PTCLDY    72  68  87 NE12      30.13R
WILLIAMSBURG*  PTCLDY    73  64  73 CALM      30.12S
MIDDLESBORO*   PTCLDY    73  65  75 W3        30.12S
HARLAN APT*      N/A     72  61  68 CALM      30.14S
HAZARD APT*    CLEAR     73  70  88 CALM      30.12S
PIKE CO APT*     N/A     75  65  71 NW6       30.13S
BIG SANDY APT* CLEAR     76  66  71 CALM      30.12S
MOREHEAD APT*  CLEAR     77  66  69 CALM      30.13S
ASHLAND*       CLEAR     75  70  83 CALM      30.07S
$$

KYZ035-036-041-042-044-050-067-078-099-290200
...CENTRAL KENTUCKY...

CITY           SKY/WX    TMP DP  RH WIND       PRES   REMARKS
MT STERLING*   CLOUDY    73  63  68 CALM      30.13S
FLEMING/MASON* CLOUDY   N/A N/A N/A CALM      30.11F
DANVILLE*      PTCLDY    73  63  68 CALM      30.12S
RICHMOND*      PTCLDY    75  64  69 CALM      30.11S
LEXINGTON      PTCLDY    74  60  61 W5        30.11R
FRANKFORT      MOCLDY    75  62  64 S3        30.09R
LOUISVILLE     CLOUDY    75  63  66 SE9       30.07S
LEBANON*       MOCLDY    73  64  73 SE3       30.11S
GLASGOW*       CLOUDY    73  65  77 CALM      30.09S
BOWLING GREEN  CLOUDY    76  65  68 S5        30.08R
$$

KYZ091>093-OHZ055-061-077-WVZ005-015-034-035-042-290200
...SOUTHERN OHIO/WEST VIRGINIA...

CITY           SKY/WX    TMP DP  RH WIND       PRES   REMARKS
COVINGTON      MOCLDY    76  62  62 SW6       30.10R
COLUMBUS       LGT RAIN  73  68  84 CALM      30.09F
DAYTON         CLOUDY    74  65  73 W8        30.10R
WILMINGTON     PTCLDY    74  66  76 SW6       30.10R
HUNTINGTON       N/A     77  64  64 CALM      30.09S
CHARLESTON       N/A     75  68  78 CALM      30.10S
PINEVILLE*       N/A     70  60  69 MISG      30.20S
BECKLEY          N/A     72  55  55 SE7       30.20R
BLUEFIELD        N/A     71  53  52 SE6       30.23R
LOGAN CO APT*    N/A     77  61  57 CALM      30.13S
$$

VAZ002-007-008-TNZ017-027-036-066-071-290200
...SOUTHWEST VIRGINIA/EAST TENNESSEE...

CITY           SKY/WX    TMP DP  RH WIND       PRES   REMARKS
WISE*            N/A     72  46  40 CALM      30.21S
JONESVILLE*      N/A     72  64  78 CALM      30.15R
ABINGDON*        N/A     77  56  48 SE5       30.17S
BRISTOL        CLOUDY    77  56  48 E3        30.14R
SEVIERVILLE*   PTCLDY    75  61  60 CALM      30.09F
KNOXVILLE      MOCLDY    78  64  61 NE3       30.09S
OAK RIDGE      CLOUDY    78  64  61 CALM      30.11S
CROSSVILLE     CLEAR     70  60  70 CALM      30.16R
NASHVILLE      MOCLDY    77  60  55 SW6       30.09R
$$

...KEY TO REMARKS...
VSB - VISIBILITY IN MILES
WCI - WIND CHILL INDEX
HX  - HEAT INDEX

$$




USA.gov is the U.S. government's official web portal to all federal, state and local government web resources and services.